Weather Roundup
Issued by NWS

Home | Current Version | Previous Version | Text Only | Print | Product List | Glossary On
Versions: 1 2 3 4 5 6 7 8 9 10 11 12 13 14 15 16 17 18 19 20 21 22 23 24 25 26 27 28 29 30 31 32 33 34 35 36 37 38 39 40 41 42 43 44 45 46 47 48 49 50
000
NZUS93 KARX 011810
HRRWXR

CURRENT HOURLY OBSERVATIONS ACROSS
MUCH OF THE UPPER MISSISSIPPI VALLEY
NATIONAL WEATHER SERVICE LA CROSSE WI
1200 PM CST WED MAR 01 2017


...SOUTHEAST MINNESOTA...


CITY           SKY/WX    TMP DP  RH WIND       PRES   REMARKS
ROCHESTER      MIX PCPN  28  23  81 NW22      29.84R WCI  14
ROCHESTER/MAYO CLOUDY    29  23  79 NW16G25   29.85R WCI  17
WINONA         CLOUDY    30  28  93 NW18G26   29.83R FOG     WCI  18
AUSTIN         PTSUNNY   30  25  80 NW17G26   29.87R WCI  18
ALBERT LEA     CLOUDY    30  27  86 NW10      29.89R WCI  21
DODGE CENTER   NOT AVBL
PRESTON        CLOUDY    28  22  81 NW20G25   29.83R WCI  14
OWATONNA       NOT AVBL
FARIBAULT      CLOUDY    32  25  74 NW12      29.90R WCI  23
$$

...ELSEWHERE IN MINNESOTA...


CITY           SKY/WX    TMP DP  RH WIND       PRES   REMARKS
MINNEAPOLIS    PTSUNNY   33  22  63 N15       29.90R WCI  23
INTNL FALLS    CLOUDY    19   1  45 N7        29.94S WCI  10
DULUTH         MOSUNNY   24  10  55 CALM      29.86R
RED WING       PTSUNNY   30  19  64 N8G16     29.88R WCI  23
REDWOOD FALLS  MOSUNNY   34  21  59 NW14G23   29.96R WCI  25
MANKATO          N/A     32  24  72 NW15      29.93R WCI  22
WORTHINGTON    CLOUDY    32  26  78 NW17      29.98R WCI  21
FAIRMONT       PTSUNNY   33  24  69 NW21G30   29.94R WCI  21
$$

...SOUTHWEST WISCONSIN...


CITY           SKY/WX    TMP DP  RH WIND       PRES   REMARKS
LA CROSSE      SNOW      30  28  92 NW22      29.78R VSB 1/2 WCI  17
PRAIRIE DU CHI LGT SNOW  31  30  97 NW13G20   29.78R WCI  21
BOSCOBEL       LGT SNOW  33  30  88 NW5       29.76R VSB 1   WCI  29
LONE ROCK      LGT SNOW  31  27  85 NW16      29.72R VSB 3/4 WCI  20
PLATTEVILLE    CLOUDY    32  32 100 W13G21    29.71R WCI  22
FORT MC COY    SNOW      28  27  95 NW14      29.76R VSB 1/2 WCI  17
CAMP DOUGLAS   SNOW      27  25  93 NW12      29.71R VSB 1/4 WCI  16
MAUSTON-NEW LI LGT SNOW  28  26  93 NW13      29.69R VSB 1   WCI  17
VIROQUA        CLOUDY    29  27  92 NW18G24   29.72R VSB 1/2 WCI  17
WIS DELLS      LGT SNOW  29  26  90 NW12      29.67R WCI  19
$$

...ELSEWHERE IN WISCONSIN...


CITY           SKY/WX    TMP DP  RH WIND       PRES   REMARKS
MILWAUKEE      CLOUDY    34  29  82 NW20      29.58R WCI  23
MADISON        LGT SNOW  31  28  89 NW12G22   29.64R FOG     WCI  22
GREEN BAY      SNOW      27  25  92 NW9G20    29.61R VSB 1/2 WCI  18
EAU CLAIRE     CLOUDY    26  20  77 NW17G24   29.82R WCI  13
BLACK RVR FLS  LGT SNOW  29  28  97 NW9       29.77R VSB 1   WCI  20
MEDFORD        LGT SNOW  24  20  83 NW14G23   29.72R WCI  12
WAUSAU         SNOW      24  20  84 N14G22    29.67R VSB 1/2 WCI  12
WIS RAPIDS     SNOW      25  23  92 N16       29.70R VSB 1/2 WCI  12
MARSHFIELD     SNOW      25  21  85 N21G28    29.70R VSB 1/2 WCI  11
RICE LAKE      CLOUDY    26  19  77 N10G21    29.86R WCI  15
$$

...NORTHEAST IOWA...


CITY           SKY/WX    TMP DP  RH WIND       PRES   REMARKS
WATERLOO       CLOUDY    34  28  79 NW25G33   29.86R WCI  21
DUBUQUE        CLOUDY    33  28  81 NW23G30   29.73R WCI  21
DECORAH        LGT SNOW  28  27  93 NW14G32   29.80R WCI  17
MASON CITY     CLOUDY    32  27  81 NW24      29.91R WCI  19
CHARLES CITY   CLOUDY    32  30  93 NW24G31   29.88R WCI  19
OELWEIN        FLURRIES  32  30  93 NW29G36   29.83R WCI  18
$$

...ELSEWHERE IN IOWA...


CITY           SKY/WX    TMP DP  RH WIND       PRES   REMARKS
DES MOINES     CLOUDY    38  29  70 NW22G28   29.98R WCI  27
IOWA CITY      CLOUDY    38  28  67 NW25G37   29.85R WCI  27
FORT DODGE     CLOUDY    34  27  75 NW12G20   29.98R WCI  25
MARSHALLTOWN   CLOUDY    35  30  82 NW23G33   29.91R WCI  23
CEDAR RAPIDS   CLOUDY    34  30  85 NW32G40   29.83R WCI  20
$$

...NORTHERN ILLINOIS...


CITY           SKY/WX    TMP DP  RH WIND       PRES   REMARKS
CHICAGO-OHARE  CLOUDY    41  35  79 W18G25    29.59R
CHICAGO-MIDWAY CLOUDY    42  36  79 NW16G24   29.60R
MOLINE         CLOUDY    38  31  76 W20       29.77R WCI  28
ROCKFORD       LGT RAIN  38  34  85 NW17      29.66R WCI  28
PEORIA         CLOUDY    39  33  79 W21G36    29.79R WCI  29
$$

NOTE: "FAIR" INDICATES FEW OR NO CLOUDS BELOW 12,000 FEET WITH NO
SIGNIFICANT WEATHER AND/OR OBSTRUCTIONS TO VISIBILITY. WIND
SPEEDS ARE IN MILES-PER-HOUR.




USA.gov is the U.S. government's official web portal to all federal, state and local government web resources and services.